Theta_e
338 337 336 335 335 334 334 334 337 338 337 338 339 337 337 336 335 333 334 333 331 330 327 325 321 321 321 320 316 314 311 307 308 309 316 317 317 316
339 338 338 337 336 336 336 337 337 337 339 339 338 337 336 335 334 332 331 332 330 328 325 321 323 322 321 315 312 307 307 306 305 309 316 316 318 316
339 339 338 338 337 337 337 337 337 338 340 340 338 334 337 334 334 332 330 329 327 324 322 321 321 320 316 313 306 306 305 304 307 312 315 315 313 312
339 339 339 339 339 338 337 338 338 339 338 337 335 335 336 335 331 329 328 326 324 321 321 321 319 316 313 307 305 304 302 300 306 313 312 314 312 312
338 340 341 342 339 339 339 339 339 338 338 338 336 336 334 332 330 327 325 323 322 322 320 319 316 311 305 305 305 301 299 299 302 310 312 312 312 310
339 340 344 342 342 343 340 340 339 337 336 336 334 333 333 330 327 325 322 320 319 320 319 315 308 304 305 304 303 303 299 299 302 308 311 310 310 309
340 341 344 344 343 343 342 343 339 336 334 334 333 331 331 329 327 325 320 318 319 318 316 309 305 306 303 303 302 299 298 298 299 302 307 308 307 307
341 339 341 342 340 341 340 340 338 338 336 330 330 332 329 327 326 322 318 318 317 317 314 306 306 304 303 302 298 297 297 297 298 303 305 306 305 304
341 340 340 338 340 341 339 338 333 333 329 330 331 330 325 327 325 321 319 318 317 314 307 306 306 305 301 298 297 297 297 297 298 300 301 301 301 301
342 341 341 340 340 340 340 336 331 330 328 328 328 325 324 324 321 319 318 316 312 307 307 306 306 301 297 296 296 297 297 297 297 299 299 299 299 298
342 341 340 339 338 340 338 331 330 329 327 325 325 324 321 318 316 313 309 308 308 308 306 304 302 297 296 296 296 296 296 297 297 298 297 297 297 296
343 342 339 338 338 338 332 329 329 327 324 323 323 321 317 312 306 306 308 309 307 305 304 300 297 296 295 295 295 295 295 296 297 296 296 295 295 295
341 340 337 336 335 332 329 328 327 325 322 322 319 315 307 305 306 309 308 307 306 303 298 295 294 294 294 294 294 295 295 295 296 295 294 294 293 294
338 337 336 334 329 328 326 324 324 321 320 317 312 306 304 308 309 308 306 305 301 297 294 294 294 294 294 293 293 293 293 295 294 294 293 293 293 292
336 335 333 332 325 324 323 322 320 318 316 311 307 306 309 309 307 304 300 296 294 294 293 293 293 293 293 293 293 292 292 292 292 292 292 292 292 292
334 334 329 325 323 321 320 317 315 313 311 309 308 310 309 307 302 295 294 293 293 293 292 291 291 291 291 292 293 291 292 291 292 292 292 292 292 292
329 328 325 323 319 319 318 314 308 305 307 309 309 308 305 299 295 295 294 292 291 291 291 291 291 291 290 291 291 291 290 290 290 291 291 291 292 292
322 326 321 319 317 316 312 307 304 306 307 306 303 304 298 296 294 293 292 292 292 292 291 290 290 290 290 290 290 289 290 289 289 290 290 290 291 292
319 322 320 320 319 312 309 306 305 305 305 298 298 295 295 297 296 292 293 293 293 292 290 290 290 290 291 290 290 290 290 290 290 290 290 290 290 291
308 305 315 319 316 317 309 306 304 299 295 295 297 299 296 293 293 294 294 293 293 292 290 290 290 290 290 290 290 290 290 290 290 290 290 290 290 290
307 304 303 299 298 302 301 298 297 297 298 298 296 294 293 293 293 293 293 293 292 290 290 290 290 290 290 290 290 290 290 290 290 290 289 290 289 289
303 302 300 300 302 298 297 297 298 297 296 295 294 294 294 293 293 293 291 289 289 289 289 289 290 290 290 290 290 290 290 290 289 290 290 290 290 290
300 300 300 299 299 299 300 298 297 296 295 293 293 293 293 291 290 289 289 289 289 289 288 289 289 289 289 290 290 290 290 291 290 290 290 290 290 289
Wind_Speed
49 49 49 47 43 40 40 41 35 30 30 30 26 24 22 20 19 22 22 20 20 25 24 16 17 18 19 19 19 20 20 21 23 21 16 11 11 9
49 48 49 47 43 40 37 34 33 34 33 30 28 25 23 23 22 21 20 22 21 25 19 15 15 19 19 17 17 18 19 20 20 19 15 10 13 11
49 50 48 45 44 40 39 37 34 33 33 32 30 28 27 26 24 20 21 21 21 18 9 12 18 20 17 17 17 18 19 19 17 16 14 15 15 15
49 50 50 45 43 40 36 36 34 31 30 29 30 29 27 23 18 20 19 20 19 15 16 15 16 16 16 16 16 16 16 14 14 13 15 11 14 19
49 49 50 45 42 42 40 36 34 30 28 29 31 26 23 22 21 19 19 19 20 22 18 17 15 16 15 14 15 14 14 13 12 15 14 12 15 16
49 48 47 47 44 44 40 36 32 27 30 27 27 23 25 19 18 20 22 23 22 19 17 16 15 14 13 13 14 17 15 13 12 13 12 14 15 16
48 49 48 48 44 41 38 35 32 30 30 29 26 26 27 26 23 23 23 22 20 18 16 16 15 14 12 13 16 15 13 12 12 10 11 13 16 13
49 51 49 46 42 38 35 33 31 31 30 28 30 25 26 24 24 23 23 23 21 19 18 16 15 14 15 15 14 12 11 12 11 12 14 15 13 13
48 51 48 46 42 40 37 34 30 29 28 27 26 24 20 23 21 20 22 22 20 18 14 14 15 18 17 14 13 12 13 13 12 12 12 11 10 10
49 49 44 46 44 42 40 34 33 30 28 25 24 18 16 17 17 14 15 19 19 18 17 17 19 18 14 14 14 14 15 15 14 12 11 9 11 10
50 47 44 46 46 43 39 36 34 30 27 23 22 20 18 17 18 17 19 17 18 18 18 20 19 17 15 16 16 17 17 18 15 15 13 11 12 13
48 42 44 44 46 42 38 36 34 33 26 23 22 21 20 19 18 17 17 16 17 19 20 19 18 15 10 15 17 18 18 17 15 13 11 12 13 14
45 43 44 45 41 39 35 34 32 29 26 24 23 21 20 19 17 17 17 17 18 20 18 14 14 15 14 15 13 11 10 10 11 12 13 14 14 14
40 41 42 44 38 35 32 29 29 26 26 25 25 23 22 21 18 18 19 19 19 19 19 19 18 18 16 15 12 13 11 9 10 10 13 14 15 15
36 37 41 40 36 34 34 34 31 29 28 27 27 23 17 19 19 20 19 18 18 19 22 21 20 18 15 13 13 15 14 12 11 11 13 13 15 18
41 39 41 40 39 40 38 36 34 32 31 28 24 22 22 21 19 19 19 19 19 21 22 23 23 21 21 19 17 19 19 13 9 12 13 15 15 18
39 38 44 47 46 45 43 40 36 32 30 28 28 23 20 19 19 19 19 19 18 16 16 15 14 13 15 18 20 20 20 20 17 16 17 17 17 18
43 48 50 51 48 47 45 42 37 33 30 27 25 19 18 16 15 14 16 16 13 10 9 9 8 7 8 10 12 12 15 20 18 15 15 18 20 19
46 47 51 50 50 48 42 39 35 31 29 23 17 19 15 15 17 12 10 10 8 9 10 7 7 8 10 13 12 11 12 12 11 15 17 19 20 18
40 42 53 52 53 48 47 39 34 28 24 23 18 11 12 12 11 12 13 11 14 15 14 10 11 11 13 13 15 13 10 11 11 11 14 17 20 20
39 36 41 32 28 37 31 26 27 25 19 17 13 14 16 15 17 20 19 21 21 19 17 15 13 10 12 14 17 15 8 9 13 15 14 14 15 19
38 31 28 26 26 26 24 20 17 14 14 12 13 17 15 15 17 19 19 14 12 14 15 15 15 14 17 17 19 15 12 10 12 14 15 17 17 19
28 21 19 24 24 23 23 21 18 15 17 18 16 19 19 19 17 12 10 9 9 9 11 13 11 13 18 19 19 17 17 16 14 14 16 22 22 19
Wind_Direction
249 249 250 253 253 250 249 250 251 257 263 270 274 278 275 278 282 287 289 274 278 266 249 253 253 258 272 280 283 289 296 301 299 292 284 269 260 260
248 247 248 250 252 252 249 245 245 251 254 263 273 278 281 286 279 286 285 272 272 257 248 239 259 270 278 286 291 292 295 298 296 288 266 262 247 262
249 247 247 248 249 247 244 244 244 248 254 263 266 276 276 275 281 280 277 273 259 248 235 251 267 273 273 280 287 290 298 300 288 277 257 250 264 268
248 246 246 244 243 245 240 235 239 246 252 254 263 266 268 272 279 272 266 269 252 219 238 262 273 268 268 276 285 298 302 291 276 261 267 251 259 261
252 244 242 237 236 233 231 232 237 240 244 248 255 255 265 262 257 257 256 250 236 227 244 269 268 262 270 284 298 303 297 284 269 249 245 253 269 269
252 239 234 233 230 228 228 232 235 238 244 246 245 249 257 251 248 246 242 237 230 241 265 264 261 268 281 294 302 298 286 274 262 250 247 247 256 258
249 235 232 234 231 230 230 230 230 234 237 237 247 235 244 240 235 238 229 230 234 257 266 261 265 274 278 290 294 289 285 280 273 261 248 259 265 263
242 235 233 233 232 230 229 231 234 233 229 239 238 242 242 237 234 228 219 222 243 262 260 264 268 279 286 284 280 282 280 278 266 240 249 261 265 272
244 238 235 234 229 225 223 225 229 226 231 233 236 242 239 237 233 222 226 239 253 256 257 264 279 286 280 274 274 276 278 277 272 265 259 253 251 242
243 238 237 231 229 224 221 225 224 220 224 223 219 226 222 225 231 236 239 241 244 245 253 263 280 279 271 273 272 271 272 273 273 263 251 232 230 239
241 241 240 231 229 225 225 221 218 219 208 211 215 218 216 219 222 218 223 227 238 250 262 269 273 271 265 268 269 268 266 272 263 255 246 236 240 244
234 239 237 236 230 227 223 219 216 206 204 202 205 209 214 215 212 217 221 228 242 259 267 254 261 260 260 266 266 264 262 261 263 247 241 237 242 246
234 228 233 230 225 224 221 219 212 203 198 199 201 203 210 213 218 225 233 242 248 252 253 247 251 253 247 253 261 265 267 262 258 253 242 245 250 242
235 234 230 221 218 219 204 201 198 199 198 199 200 203 207 217 229 236 243 248 244 244 248 252 253 256 259 258 265 277 273 266 266 259 249 249 256 251
239 241 226 227 207 206 202 200 199 200 202 202 204 207 208 224 236 245 242 237 239 246 251 255 258 259 260 260 266 277 282 289 284 280 271 259 254 253
237 230 216 209 202 201 199 202 205 206 204 205 198 197 211 229 231 229 235 238 242 249 253 257 258 262 260 259 261 263 267 268 270 270 268 263 263 251
226 219 208 202 197 198 202 203 203 202 205 198 201 200 212 213 220 227 234 240 239 243 251 255 260 262 259 259 262 263 266 266 264 261 262 261 261 266
225 212 204 199 199 200 202 200 201 203 201 204 202 198 202 209 221 233 234 236 240 248 258 271 276 266 273 282 284 283 272 264 261 246 257 260 255 257
222 217 207 201 204 204 204 204 206 197 199 196 194 187 187 207 224 220 243 256 270 290 297 282 263 266 266 278 298 291 282 289 273 246 250 257 258 263
215 210 205 207 206 206 208 205 197 184 183 171 181 201 195 206 202 218 231 247 260 269 280 267 257 260 267 283 287 284 293 284 279 267 261 256 259 260
215 216 209 199 195 199 193 182 174 178 179 168 164 184 203 211 218 226 234 241 243 246 252 254 262 266 267 267 268 276 298 307 280 269 270 265 258 254
216 213 200 201 193 182 161 164 158 152 142 161 182 211 212 219 230 240 250 249 248 250 252 257 255 255 256 260 270 278 284 285 288 273 258 249 252 252
208 203 191 175 164 176 161 158 151 156 197 202 203 222 228 234 243 244 242 248 241 253 259 261 258 258 257 261 268 276 279 273 265 271 269 253 251 254